Miscellaneous Local Product
Issued by NWS Hastings, NE

Home | Current Version | Previous Version | Graphics & Text | Print | Product List | Glossary On
Versions: 1 2 3 4 5 6 7 8 9 10 11 12 13 14 15 16 17 18 19 20 21 22 23 24 25 26 27 28 29 30 31 32 33 34 35 36 37 38 39 40 41 42 43 44 45 46 47 48 49 50
000
AXUS43 KGID 262102
MISGRI

GID CWA HOURLY WEATHER ROUNDUP
NATIONAL WEATHER SERVICE HASTINGS NE
300 PM CST FRI DEC 26 2014

NOTE: "FAIR" INDICATES FEW OR NO CLOUDS BELOW 12,000 FEET WITH NO
SIGNIFICANT WEATHER AND/OR OBSTRUCTIONS TO VISIBILITY.

...SOUTH CENTRAL NEBRASKA...

CITY           SKY/WX    TMP DP  RH WIND       PRES   REMARKS
GRAND ISLAND   CLOUDY    27  21  78 N16       30.00S WCI  15
HASTINGS       CLOUDY    28  21  75 N17       29.97F WCI  16
KEARNEY        CLOUDY    27  18  69 N20       29.98F WCI  13
ORD            CLOUDY    25  17  72 N18       30.02R WCI  11
YORK           CLOUDY    28  27  93 N16G22    29.99S WCI  17
AURORA         CLOUDY    28  25  86 N18       29.99S WCI  16
LEXINGTON      CLOUDY    28  19  70 N18G26    29.98R WCI  15
HOLDREGE       CLOUDY    27  21  77 N13       29.98R WCI  16
HEBRON         CLOUDY    31  26  84 N13       29.97F WCI  21

...NEBRASKA PANHANDLE...

CITY           SKY/WX    TMP DP  RH WIND       PRES   REMARKS
CHADRON        CLOUDY    21  14  74 NE8       30.07R WCI  11
ALLIANCE       LGT SNOW  18  14  84 N13       30.01R FOG     WCI   5
SCOTTSBLUFF    LGT SNOW  21  17  84 N5        30.02S FOG     WCI  15
SIDNEY         LGT SNOW  18  13  80 N15       29.97F WCI   4

...WESTERN AND NORTH CENTRAL NEBRASKA...

CITY           SKY/WX    TMP DP  RH WIND       PRES   REMARKS
VALENTINE      CLOUDY    21  17  84 N12       30.07R WCI   9
AINSWORTH      LGT SNOW  20  18  91 N13       30.05R WCI   8
ONEILL         LGT SNOW  23  22  94 N16       30.04S WCI  10
BROKEN BOW     CLOUDY    25  19  78 N15       29.99S WCI  13
IMPERIAL       SNOW      22  18  85 N15       29.99R VSB 1/2 WCI   9
NORTH PLATTE   SNOW      23  19  85 N13       30.00S VSB 1/2 WCI  11
MCCOOK         LGT SNOW  25  21  85 N15       29.98F FOG     WCI  13

...EASTERN NEBRASKA...

CITY           SKY/WX    TMP DP  RH WIND       PRES   REMARKS
NORFOLK        CLOUDY    28  24  85 N16       30.00R WCI  16
SO SIOUX CITY  CLOUDY    32  27  81 N13       30.01S WCI  22
TEKAMAH        CLOUDY    33  29  85 N15       30.01R WCI  23
COLUMBUS       CLOUDY    28  21  74 N12       30.02S WCI  18
ALBION         CLOUDY    26  21  81 N16G22    30.02R WCI  14
OMAHA EPPLEY   CLOUDY    33  30  88 N13       30.00R WCI  24
OFFUTT AFB     CLOUDY    34  30  86 N10       29.97R WCI  26
MILLARD        CLOUDY    33  29  85 N7        29.98S WCI  27
LINCOLN        CLOUDY    32  28  85 N10       30.01R WCI  24
NEBRASKA CITY  CLOUDY    33  33  98 N10       29.96R FOG     WCI  25
BEATRICE       CLOUDY    32  30  92 N12       29.96F FOG     WCI  23
FALLS CITY     CLOUDY    36  31  82 N6        29.95S WCI  31

...NORTHERN KANSAS...

CITY           SKY/WX    TMP DP  RH WIND       PRES   REMARKS
GOODLAND       LGT SNOW  23  19  85 N16       29.96R FOG     WCI  10
HILL CITY      SNOW      28  24  85 N13       29.98S VSB 1/2 WCI  17
NORTON         SNOW      27  21  80 N12       29.97S VSB 1/2 WCI  16
PHILLIPSBURG   CLOUDY    32  25  74 N10       29.98F WCI  24
SMITH CENTER   CLOUDY    27  25  93 N9        29.99R FOG     WCI  17
BELOIT         CLOUDY    30  27  86 N14       29.96F WCI  20
HAYS           CLOUDY    28  19  69 NE10      29.96R WCI  19
RUSSELL        CLOUDY    29  27  92 N12       29.95S FOG     WCI  19
CONCORDIA      CLOUDY    31  29  92 N10       29.95F FOG     WCI  22
SALINA         CLOUDY    34  29  82 N10       29.98R WCI  26
TOPEKA         CLOUDY    40  34  79 N10       29.95R WCI  33



USA.gov is the U.S. government's official web portal to all federal, state and local government web resources and services.